This is the latest recevied weather packets stored in our database for station/object N1HQ. If no packets are shown the sender has not sent any weather packets the latest 1 day(s).
| Time | Temp. | Humidity | Pressure | Rain* | Wind** | Luminosity | Snow |
|---|---|---|---|---|---|---|---|
| 1778030283 | 22.78° C | 95% | 1012.8 hPa | 0 mm | 0.45 m/s, 151° | - | - |
| 1778030028 | 22.78° C | 94% | 1012.8 hPa | 0 mm | 0.89 m/s, 136° | - | - |
| 1778029758 | 22.78° C | 94% | 1012.7 hPa | 0 mm | 0.89 m/s, 167° | - | - |
| 1778029503 | 22.78° C | 94% | 1012.5 hPa | 0 mm | 0.89 m/s, 158° | - | - |
| 1778029203 | 22.78° C | 94% | 1012.7 hPa | 0 mm | 0.89 m/s, 139° | - | - |
| 1778028927 | 22.78° C | 93% | 1012.6 hPa | 0 mm | 0.89 m/s, 207° | - | - |
| 1778028682 | 22.78° C | 93% | 1012.5 hPa | 0 mm | 0.89 m/s, 161° | - | - |
| 1778028407 | 22.78° C | 93% | 1012.6 hPa | 0 mm | 0.89 m/s, 144° | - | - |
| 1778028133 | 22.78° C | 92% | 1012.5 hPa | 0 mm | 0.89 m/s, 171° | - | - |
| 1778027843 | 22.78° C | 92% | 1012.6 hPa | 0 mm | 0.89 m/s, 152° | - | - |
| 1778027543 | 22.78° C | 92% | 1012.4 hPa | 0 mm | 0.89 m/s, 158° | - | - |
| 1778027277 | 22.78° C | 91% | 1012.5 hPa | 0 mm | 0.89 m/s, 123° | - | - |
| 1778026983 | 22.78° C | 91% | 1012.4 hPa | 0 mm | 0.45 m/s, 212° | - | - |
| 1778026713 | 23.33° C | 91% | 1012.3 hPa | 0 mm | 0.45 m/s, 129° | - | - |
| 1778026413 | 23.33° C | 91% | 1012.2 hPa | 0 mm | 0.89 m/s, 142° | - | - |
| 1778026153 | 23.33° C | 90% | 1012.3 hPa | 0 mm | 1.34 m/s, 129° | - | - |
| 1778025883 | 23.33° C | 89% | 1012.2 hPa | 0 mm | 0.89 m/s, 157° | - | - |
| 1778025618 | 23.33° C | 89% | 1012.1 hPa | 0 mm | 0.89 m/s, 164° | - | - |
| 1778025328 | 23.89° C | 88% | 1012.3 hPa | 0 mm | 1.34 m/s, 160° | - | - |
| 1778025063 | 23.89° C | 88% | 1012.4 hPa | 0 mm | 1.34 m/s, 148° | - | - |
| 1778024778 | 23.89° C | 87% | 1012.4 hPa | 0 mm | 1.34 m/s, 229° | - | - |
| 1778024528 | 23.89° C | 87% | 1012.4 hPa | 0 mm | 1.34 m/s, 132° | - | - |
| 1778024263 | 23.89° C | 86% | 1012.4 hPa | 0 mm | 1.34 m/s, 155° | - | - |
| 1778023988 | 24.44° C | 86% | 1012.6 hPa | 0 mm | 1.34 m/s, 144° | - | - |
| 1778023703 | 24.44° C | 85% | 1012.6 hPa | 0 mm | 1.34 m/s, 126° | - | - |
* Rain latest hour (hover to see other rain measurements)
** Current wind speed in m/s (hover to see current wind gust speed)